Flag for Canada Weather past 2 weeks in Fort St. John, British Columbia, Canada

Now
57 °F

Passing clouds.


Feels Like: 55 °F
Forecast: 51 / 69 °F
Wind: 10 mph from South

Location: Fort St John

Current Time: Sep 22, 2014 at 8:01:19 AM

Latest Report: Sep 22, 2014 at 7:00 AM


Visibility: 15 mi

Pressure: 29.66 "Hg

Humidity: 63%

Dew point: 45 °F

Location of Fort St. JohnLocation

Historic Weather in Fort St. John — Graph

°F

Fort St. John temperature yesterday

Maximum temperature yesterday: 81 °F (at 3:00 PM)
Minimum temperature yesterday: 52 °F (at 7:00 AM)
Average temperature yesterday: 64 °F

Past Weeks' High & Low Weather Summary

 TemperatureHumidityPressure
High81 °F (Sep 21, 3:00 PM)100% (Sep 7, 7:00 AM)30.70 "Hg (Sep 7, 7:00 AM)
Low27 °F (Sep 10, 6:00 AM)27% (Sep 11, 1:00 PM)29.50 "Hg (Sep 19, 2:00 AM)
Average50 °F68%30.05 "Hg
* Reported Sep 7 6:00 AM — Sep 22 6:00 AM, Fort St. John, Weather by CustomWeather, © 2014

Note: Actual official high and low records may vary slightly from our data, if they occured in-between our weather recording intervals... More about our weather records

Advertising

Fort St. John weather history for previous 24 hours

 ConditionsComfort  
Time TempWeatherWind HumidityBarometerVisibility
6:00 AM
Sep 22
55 °FPassing clouds.8 mph63%29.65 "Hg15 mi
5:00 AM57 °FPassing clouds.6 mph55%29.63 "Hg15 mi
4:00 AM54 °FPassing clouds.10 mph63%29.62 "Hg15 mi
3:00 AM55 °FPassing clouds.9 mph59%29.62 "Hg15 mi
2:00 AM54 °FPassing clouds.10 mph63%29.63 "Hg15 mi
1:00 AM55 °FPassing clouds.9 mph63%29.64 "Hg15 mi
12:00 AM55 °FPassing clouds.8 mph67%29.66 "Hg15 mi
11:00 PM
Sep 21
57 °FPassing clouds.8 mph63%29.67 "Hg15 mi
10:00 PM59 °FPassing clouds.6 mph59%29.69 "Hg15 mi
9:00 PM66 °FPassing clouds.6 mph46%29.70 "Hg15 mi
8:00 PM63 °FPartly sunny.8 mph52%29.71 "Hg15 mi
7:00 PM66 °FBroken clouds.7 mph49%29.72 "Hg15 mi
6:00 PM73 °FBroken clouds.5 mph41%29.72 "Hg15 mi
5:00 PM77 °FBroken clouds.3 mph34%29.72 "Hg15 mi
4:00 PM79 °FPartly sunny.5 mph32%29.74 "Hg15 mi
3:00 PM81 °FPartly sunny.3 mph30%29.76 "Hg15 mi
2:00 PM79 °FScattered clouds.7 mph34%29.78 "Hg15 mi
1:00 PM75 °FPartly sunny.2 mph36%29.80 "Hg15 mi
12:00 PM73 °FPartly sunny.6 mph41%29.83 "Hg15 mi
11:00 AM70 °FPartly sunny.5 mph43%29.85 "Hg15 mi
10:00 AM66 °FPartly sunny.7 mph49%29.87 "Hg15 mi
9:00 AM61 °FBroken clouds.6 mph59%29.88 "Hg15 mi
8:00 AM55 °FBroken clouds.7 mph67%29.91 "Hg15 mi
Weather by CustomWeather, © 2014

See weather overviewHow to use our weather pages